Tracking 20232 objects as of 22-Jan-2020
HD Live streaming from Space Station
objects crossing your sky now

MOLNIYA 1-75

Track MOLNIYA 1-75 now!
MOLNIYA 1-75 is classified as:


NORAD ID: 19807
Int'l Code: 1989-014A
Perigee: 1,489.0 km
Apogee: 38,952.2 km
Inclination: 64.2 °
Period: 719.2 minutes
Semi major axis: 26591 km
RCS: 12.6191 m2 (large)
Launch date: February 15, 1989
Source: Commonwealth of Independent States (former USSR) (CIS)
Launch site: TYURATAM MISSILE AND SPACE COMPLEX (TTMTR)
aabbcc
Your satellite tracking list
Your tracking list is empty




NASA's NSSDC Master Catalog

Two Line Element Set (TLE):
1 19807U 89014A   20020.03021096 -.00000738  00000-0 -99665-2 0  9999
2 19807  64.2404  29.7843 7044181 272.2904  15.7509  2.00210033226447
Source of the keplerian elements: AFSPC